Raton, NM

5:15 AM MST on February 11, 2016 (GMT -0700)
Raton Municipal-Crews

Weather History for KRTN - November, 2011

Change the Weather History Date:

Tuesday, November 22, 2011

  Actual Average (KTAD) Record (KTAD)
Temperature  
Mean Temperature 44 °F 38 °F  
Max Temperature 59 °F 53 °F 75 °F (1998)
Min Temperature 28 °F 23 °F -2 °F (1957)
Degree Days  
Heating Degree Days 22 27  
Month to date heating degree days 497  
Since 1 July heating degree days 998  
Cooling Degree Days 0 0  
Month to date cooling degree days 0  
Year to date cooling degree days 719  
Moisture  
Dew Point 19 °F    
Average Humidity 46    
Maximum Humidity 78    
Minimum Humidity 18    
Precipitation  
Precipitation 0.00 in 0.02 in 0.32 in (1986)
Sea Level Pressure  
Sea Level Pressure 30.12 in    
Wind  
Wind Speed 5 mph (ENE)    
Max Wind Speed 12 mph    
Max Gust Speed 17 mph    
Visibility 10 miles    
Events      
T = Trace of Precipitation, MM = Missing Value Source: NWS Daily Summary

Daily Weather History Graph

Daily Weather History Graph

Search for Another Location

Airport or City:

Trip Planner

Search our weather history database for the weather conditions in past years. The results will help you decide how hot, cold, wet, or windy it might be!

Date:

Astronomy

Nov. 22, 2011 Rise Set
Actual Time 6:42 AM MST 4:44 PM MST
Civil Twilight 6:14 AM MST 5:12 PM MST
Nautical Twilight 5:43 AM MST 5:44 PM MST
Astronomical Twilight 5:12 AM MST 6:15 PM MST
Moon 3:39 AM MST (11/22) 2:43 PM MST (11/22)
Length of Visible Light 10h 57m
Length of Day
10h 01m
Waning Crescent, 9% of the Moon is Illuminated
Nov 22
Waning Crescent
Nov 24
New
Dec 2
First Quarter
Dec 10
Full
Dec 17
Last Quarter

Hourly Weather History & Observations

Time (MST) Temp. Windchill Dew Point Humidity Pressure Visibility Wind Dir Wind Speed Gust Speed Precip Events Conditions
12:53 AM 32.0 °F 28.7 °F 25.0 °F 75% 29.99 in 10.0 mi East 3.5 mph - N/A   Clear
1:53 AM 28.9 °F 23.9 °F 23.0 °F 78% 30.01 in 10.0 mi NE 4.6 mph - N/A   Clear
2:53 AM 28.9 °F 22.8 °F 21.9 °F 75% 30.03 in 10.0 mi NNE 5.8 mph - N/A   Clear
3:53 AM 30.0 °F 25.2 °F 21.0 °F 69% 30.03 in 10.0 mi East 4.6 mph - N/A   Clear
4:53 AM 33.1 °F 27.7 °F 19.9 °F 59% 30.06 in 10.0 mi East 5.8 mph - N/A   Clear
5:53 AM 28.0 °F 20.8 °F 19.0 °F 69% 30.12 in 10.0 mi NNE 6.9 mph - N/A   Clear
6:53 AM 28.9 °F 21.9 °F 18.0 °F 64% 30.14 in 10.0 mi North 6.9 mph - N/A   Clear
7:53 AM 35.1 °F 32.2 °F 21.0 °F 57% 30.16 in 10.0 mi ENE 3.5 mph - N/A   Clear
8:53 AM 46.0 °F - 21.9 °F 39% 30.13 in 10.0 mi Calm Calm - N/A   Clear
9:53 AM 50.0 °F - 23.0 °F 35% 30.14 in 10.0 mi East 3.5 mph - N/A   Clear
10:53 AM 55.0 °F - 19.0 °F 24% 30.12 in 10.0 mi Variable 3.5 mph - N/A   Clear
11:53 AM 57.9 °F - 16.0 °F 19% 30.08 in 10.0 mi SSE 6.9 mph - N/A   Clear
12:53 PM 57.9 °F - 15.1 °F 19% 30.08 in 10.0 mi South 11.5 mph - N/A   Clear
1:53 PM 59.0 °F - 15.1 °F 18% 30.07 in 10.0 mi South 9.2 mph 17.3 mph N/A   Clear
2:53 PM 59.0 °F - 16.0 °F 19% 30.06 in 10.0 mi South 9.2 mph - N/A   Clear
3:53 PM 57.0 °F - 16.0 °F 20% 30.07 in 10.0 mi South 9.2 mph - N/A   Clear
4:53 PM 50.0 °F - 16.0 °F 26% 30.11 in 10.0 mi South 8.1 mph - N/A   Clear
5:53 PM 46.0 °F 43.1 °F 17.1 °F 31% 30.18 in 10.0 mi West 5.8 mph - N/A   Clear
6:53 PM 43.0 °F - 18.0 °F 37% 30.22 in 10.0 mi Calm Calm - N/A   Clear
7:53 PM 35.1 °F 27.9 °F 19.0 °F 52% 30.25 in 10.0 mi NNW 9.2 mph - N/A   Clear
8:53 PM 39.0 °F 33.4 °F 19.0 °F 45% 30.19 in 10.0 mi North 8.1 mph - N/A   Clear
9:53 PM 30.0 °F 23.2 °F 17.1 °F 59% 30.24 in 10.0 mi NNW 6.9 mph - N/A   Clear
10:53 PM 30.0 °F 26.5 °F 17.1 °F 59% 30.22 in 10.0 mi Variable 3.5 mph - N/A   Clear
11:53 PM 30.0 °F 24.1 °F 18.0 °F 61% 30.22 in 10.0 mi North 5.8 mph - N/A   Clear